AFR1003 LGIR-LFPG

Flight info

Callsign AFR1003
Flight time N/A
Altitude 36000
Route EPALO M749 DIRMI UL613 KOR DCT DIMIS DCT VAKSU DCT BAXON DCT SRN DCT INVOP DCT CERVI DCT MOLUS DCT UNKIR DCT GIVRI DCT TINIL
Aircraft A320/M-SDE3FGHIRWY/LB1

Departure

Time 2026-04-29 17:51
Airport Heraklion International Nikos Kazantzakis Airport (LGIR)

Arrival

Time N/A
Airport Charles de Gaulle International Airport (LFPG)
Time Latitude Longitude Altitude Speed Heading
2026-04-29 17:31 35.33812 25.17676 114 ft 0 kts 276°
2026-04-29 17:32 35.33861 25.17674 108 ft 0 kts 307°
2026-04-29 17:34 35.33861 25.17675 108 ft 0 kts 307°
2026-04-29 17:35 35.33862 25.17675 108 ft 0 kts 307°
2026-04-29 17:39 35.33863 25.17675 108 ft 0 kts 306°
2026-04-29 17:40 35.33863 25.17676 108 ft 0 kts 306°
2026-04-29 17:46 35.33879 25.17651 108 ft 6 kts 308°
2026-04-29 17:47 35.33895 25.17650 107 ft 4 kts 39°
2026-04-29 17:47 35.33893 25.17749 104 ft 15 kts 94°
2026-04-29 17:47 35.33885 25.17890 100 ft 18 kts 95°
2026-04-29 17:47 35.33873 25.18059 99 ft 22 kts 95°
2026-04-29 17:48 35.33860 25.18243 103 ft 20 kts 95°
2026-04-29 17:48 35.33847 25.18416 104 ft 20 kts 95°
2026-04-29 17:48 35.33836 25.18584 105 ft 19 kts 94°
2026-04-29 17:48 35.33824 25.18763 103 ft 21 kts 95°
2026-04-29 17:49 35.33821 25.18952 97 ft 23 kts 62°
2026-04-29 17:49 35.33913 25.19064 84 ft 3 kts 355°
2026-04-29 17:49 35.33915 25.19057 84 ft 0 kts 250°
2026-04-29 17:49 35.33906 25.19028 87 ft 1 kts 256°
2026-04-29 17:50 35.33905 25.19017 88 ft 0 kts 269°
2026-04-29 17:50 35.33906 25.18934 93 ft 38 kts 275°
2026-04-29 17:51 35.33953 25.18275 99 ft 113 kts 275°
2026-04-29 17:51 35.34039 25.17054 125 ft 169 kts 275°
2026-04-29 17:51 35.34137 25.15587 676 ft 179 kts 274°
2026-04-29 17:51 35.34465 25.14167 1404 ft 177 kts 310°
2026-04-29 17:52 35.35445 25.13345 2075 ft 176 kts 344°
2026-04-29 17:52 35.36255 25.13057 2381 ft 187 kts 345°
2026-04-29 17:52 35.38028 25.12461 2969 ft 210 kts 345°
2026-04-29 17:52 35.39502 25.11969 3404 ft 230 kts 345°
2026-04-29 17:53 35.41111 25.11428 3877 ft 248 kts 345°
2026-04-29 17:53 35.42818 25.10851 4403 ft 262 kts 345°
2026-04-29 17:53 35.44581 25.10254 5131 ft 267 kts 345°
2026-04-29 17:53 35.46359 25.09650 5904 ft 268 kts 345°
2026-04-29 17:54 35.48167 25.09034 6670 ft 270 kts 345°
2026-04-29 17:54 35.49973 25.08405 7378 ft 273 kts 343°
2026-04-29 17:54 35.51800 25.07727 8080 ft 276 kts 343°
2026-04-29 17:54 35.53639 25.07082 8788 ft 279 kts 344°
2026-04-29 17:55 35.55530 25.06447 9486 ft 282 kts 344°
2026-04-29 17:55 35.57427 25.05817 10160 ft 285 kts 344°
2026-04-29 17:55 35.59356 25.05174 10579 ft 298 kts 344°
2026-04-29 17:55 35.61420 25.04481 10885 ft 315 kts 344°
2026-04-29 17:56 35.63594 25.03749 11180 ft 330 kts 344°
2026-04-29 17:56 35.65817 25.02996 11649 ft 337 kts 343°
2026-04-29 17:56 35.68104 25.02218 12239 ft 340 kts 343°
2026-04-29 17:56 35.70383 25.01440 12824 ft 343 kts 343°
2026-04-29 17:57 35.72638 25.00540 13363 ft 346 kts 339°
2026-04-29 17:57 35.74901 24.99471 13901 ft 349 kts 338°
2026-04-29 17:57 35.77192 24.98395 14467 ft 351 kts 338°
2026-04-29 17:57 35.79466 24.97328 14980 ft 354 kts 338°
2026-04-29 17:58 35.81790 24.96236 15503 ft 356 kts 338°
2026-04-29 17:58 35.84094 24.95152 15986 ft 360 kts 338°
2026-04-29 17:58 35.86456 24.94040 16495 ft 362 kts 338°
2026-04-29 17:58 35.88800 24.92937 16982 ft 365 kts 338°
2026-04-29 17:59 35.91181 24.91816 17426 ft 368 kts 338°
2026-04-29 17:59 35.93591 24.90682 17889 ft 371 kts 338°
2026-04-29 17:59 35.96004 24.89546 18335 ft 373 kts 338°
2026-04-29 17:59 35.98435 24.88392 18776 ft 375 kts 338°
2026-04-29 18:00 36.00850 24.87241 19216 ft 377 kts 338°
2026-04-29 18:00 36.03303 24.86075 19649 ft 379 kts 338°
2026-04-29 18:00 36.05701 24.84721 20070 ft 379 kts 327°
2026-04-29 18:00 36.07837 24.82795 20497 ft 379 kts 320°
2026-04-29 18:01 36.09874 24.80775 20909 ft 380 kts 320°
2026-04-29 18:01 36.11952 24.78717 21297 ft 382 kts 320°
2026-04-29 18:01 36.14027 24.76661 21683 ft 384 kts 320°
2026-04-29 18:01 36.16125 24.74581 22091 ft 385 kts 320°
2026-04-29 18:02 36.18203 24.72520 22452 ft 387 kts 320°
2026-04-29 18:02 36.20310 24.70429 22801 ft 389 kts 320°
2026-04-29 18:02 36.22421 24.68332 23175 ft 390 kts 320°
2026-04-29 18:02 36.24525 24.66240 23553 ft 391 kts 320°
2026-04-29 18:03 36.26643 24.64133 23895 ft 392 kts 320°
2026-04-29 18:03 36.28780 24.62006 24198 ft 395 kts 320°
2026-04-29 18:03 36.30924 24.59870 24528 ft 396 kts 320°
2026-04-29 18:03 36.33070 24.57729 24856 ft 397 kts 320°
2026-04-29 18:04 36.35236 24.55569 25155 ft 400 kts 320°
2026-04-29 18:04 36.37389 24.53419 25478 ft 400 kts 320°
2026-04-29 18:04 36.39562 24.51247 25782 ft 402 kts 320°
2026-04-29 18:04 36.41735 24.49073 26039 ft 404 kts 321°
2026-04-29 18:05 36.43939 24.46868 26311 ft 406 kts 320°
2026-04-29 18:05 36.46127 24.44677 26636 ft 406 kts 320°
2026-04-29 18:05 36.48322 24.42477 26893 ft 408 kts 320°
2026-04-29 18:05 36.50525 24.40266 27164 ft 409 kts 320°
2026-04-29 18:06 36.52741 24.38041 27403 ft 411 kts 320°
2026-04-29 18:06 36.54968 24.35804 27629 ft 414 kts 321°
2026-04-29 18:06 36.57228 24.33533 27864 ft 416 kts 320°
2026-04-29 18:06 36.59478 24.31268 28157 ft 416 kts 320°
2026-04-29 18:07 36.61731 24.28999 28416 ft 417 kts 320°
2026-04-29 18:07 36.63956 24.26758 28663 ft 418 kts 320°
2026-04-29 18:07 36.66224 24.24470 28883 ft 420 kts 320°
2026-04-29 18:07 36.68501 24.22171 29116 ft 421 kts 320°
2026-04-29 18:08 36.70772 24.19877 29319 ft 423 kts 320°
2026-04-29 18:08 36.73057 24.17568 29545 ft 424 kts 320°
2026-04-29 18:08 36.75348 24.15250 29746 ft 425 kts 320°
2026-04-29 18:08 36.77617 24.12952 29949 ft 426 kts 320°
2026-04-29 18:09 36.79932 24.10607 30159 ft 427 kts 320°
2026-04-29 18:09 36.82245 24.08261 30342 ft 429 kts 320°
2026-04-29 18:09 36.84563 24.05909 30539 ft 430 kts 320°
2026-04-29 18:09 36.86853 24.03582 30767 ft 430 kts 320°
2026-04-29 18:10 36.89167 24.01229 30949 ft 431 kts 320°
2026-04-29 18:10 36.91517 23.98839 31102 ft 433 kts 320°
2026-04-29 18:10 36.93835 23.96478 31326 ft 432 kts 320°
2026-04-29 18:10 36.96154 23.94115 31579 ft 431 kts 320°
2026-04-29 18:11 36.98481 23.91741 31882 ft 429 kts 320°
2026-04-29 18:11 37.00779 23.89396 32087 ft 429 kts 320°
2026-04-29 18:11 37.03097 23.87027 32311 ft 429 kts 320°
2026-04-29 18:11 37.05380 23.84692 32503 ft 429 kts 320°
2026-04-29 18:12 37.07687 23.82332 32705 ft 428 kts 320°
2026-04-29 18:12 37.09998 23.79965 32915 ft 428 kts 319°
2026-04-29 18:12 37.12290 23.77615 33133 ft 427 kts 320°
2026-04-29 18:12 37.14591 23.75255 33360 ft 426 kts 320°
2026-04-29 18:13 37.16871 23.72915 33547 ft 426 kts 319°
2026-04-29 18:13 37.19148 23.70575 33742 ft 426 kts 319°
2026-04-29 18:13 37.21443 23.68215 33928 ft 425 kts 319°
2026-04-29 18:13 37.23741 23.65851 34077 ft 426 kts 319°
2026-04-29 18:14 37.26018 23.63506 34254 ft 425 kts 319°
2026-04-29 18:14 37.28301 23.61153 34400 ft 425 kts 319°
2026-04-29 18:14 37.30571 23.58812 34535 ft 425 kts 319°
2026-04-29 18:14 37.32840 23.56470 34685 ft 424 kts 319°
2026-04-29 18:15 37.35101 23.54133 34827 ft 424 kts 319°
2026-04-29 18:15 37.37380 23.51778 34981 ft 423 kts 319°
2026-04-29 18:15 37.39656 23.49423 35122 ft 422 kts 319°
2026-04-29 18:15 37.41895 23.47105 35245 ft 422 kts 319°
2026-04-29 18:16 37.44166 23.44754 35390 ft 421 kts 319°
2026-04-29 18:16 37.46431 23.42401 35534 ft 421 kts 319°
2026-04-29 18:16 37.48662 23.40080 35673 ft 420 kts 319°
2026-04-29 18:17 37.53182 23.35378 35868 ft 421 kts 319°
2026-04-29 18:17 37.55438 23.33030 36025 ft 420 kts 318°
2026-04-29 18:17 37.57667 23.30708 36115 ft 421 kts 318°
2026-04-29 18:18 37.62204 23.25977 36119 ft 427 kts 318°
2026-04-29 18:18 37.66793 23.21184 36116 ft 431 kts 318°
2026-04-29 18:19 37.71428 23.16335 36120 ft 434 kts 318°
2026-04-29 18:19 37.76076 23.11464 36129 ft 436 kts 318°
2026-04-29 18:20 37.80734 23.06574 36144 ft 436 kts 318°
2026-04-29 18:20 37.85381 23.01688 36160 ft 437 kts 318°
2026-04-29 18:21 37.90048 22.96771 36162 ft 437 kts 318°
2026-04-29 18:21 37.94723 22.91844 36149 ft 437 kts 319°
2026-04-29 18:22 37.99406 22.86926 36141 ft 438 kts 319°
2026-04-29 18:22 38.04056 22.82034 36125 ft 437 kts 319°
2026-04-29 18:23 38.08731 22.77104 36120 ft 437 kts 319°
2026-04-29 18:23 38.13387 22.72186 36122 ft 437 kts 318°
2026-04-29 18:24 38.18040 22.67264 36122 ft 436 kts 319°
2026-04-29 18:24 38.22707 22.62316 36122 ft 436 kts 318°
2026-04-29 18:25 38.27342 22.57395 36127 ft 436 kts 318°
2026-04-29 18:25 38.31994 22.52448 36137 ft 436 kts 319°
2026-04-29 18:26 38.36636 22.47502 36144 ft 436 kts 319°
2026-04-29 18:26 38.41273 22.42554 36170 ft 436 kts 318°
2026-04-29 18:27 38.45913 22.37593 36175 ft 436 kts 318°
2026-04-29 18:27 38.50552 22.32625 36191 ft 436 kts 318°
2026-04-29 18:28 38.55191 22.27649 36192 ft 436 kts 318°
2026-04-29 18:28 38.59823 22.22671 36187 ft 437 kts 318°
2026-04-29 18:29 38.64466 22.17673 36183 ft 437 kts 318°
2026-04-29 18:29 38.69096 22.12680 36181 ft 437 kts 318°
2026-04-29 18:30 38.73757 22.07644 36183 ft 437 kts 318°
2026-04-29 18:30 38.78390 22.02630 36184 ft 438 kts 318°
2026-04-29 18:31 38.83031 21.97599 36179 ft 438 kts 318°
2026-04-29 18:31 38.87670 21.92561 36180 ft 439 kts 318°
2026-04-29 18:32 38.92310 21.87512 36181 ft 439 kts 318°
2026-04-29 18:32 38.99279 21.79913 36181 ft 439 kts 318°
2026-04-29 18:33 39.03937 21.74822 36188 ft 439 kts 318°
2026-04-29 18:33 39.08569 21.69751 36179 ft 439 kts 318°
2026-04-29 18:34 39.12445 21.65501 36180 ft 439 kts 317°
2026-04-29 18:34 39.17856 21.59556 36181 ft 438 kts 318°
2026-04-29 18:35 39.22484 21.54462 36183 ft 438 kts 317°
2026-04-29 18:35 39.27112 21.49359 36190 ft 438 kts 317°
2026-04-29 18:36 39.31708 21.44281 36188 ft 437 kts 317°
2026-04-29 18:36 39.36323 21.39175 36189 ft 437 kts 317°
2026-04-29 18:37 39.40933 21.34063 36196 ft 437 kts 317°
2026-04-29 18:37 39.45531 21.28956 36201 ft 437 kts 317°
2026-04-29 18:38 39.50130 21.23839 36203 ft 436 kts 317°
2026-04-29 18:38 39.54710 21.18733 36197 ft 436 kts 317°
2026-04-29 18:39 39.59317 21.13589 36193 ft 436 kts 317°
2026-04-29 18:39 39.63897 21.08465 36188 ft 436 kts 317°
2026-04-29 18:40 39.68476 21.03333 36185 ft 436 kts 317°
2026-04-29 18:40 39.73035 20.98214 36186 ft 436 kts 317°
2026-04-29 18:41 39.82178 20.87920 36191 ft 436 kts 317°
2026-04-29 18:42 39.86746 20.82763 36196 ft 435 kts 317°
2026-04-29 18:42 39.91293 20.77619 36209 ft 436 kts 317°
2026-04-29 18:43 39.95866 20.72437 36215 ft 436 kts 317°
2026-04-29 18:43 40.00414 20.67273 36205 ft 435 kts 317°
2026-04-29 18:44 40.04987 20.62071 36200 ft 436 kts 317°
2026-04-29 18:44 40.09646 20.57036 36195 ft 436 kts 320°
2026-04-29 18:45 40.14405 20.52153 36188 ft 435 kts 320°
2026-04-29 18:45 40.19151 20.47271 36184 ft 435 kts 320°
2026-04-29 18:46 40.23896 20.42382 36187 ft 436 kts 320°
2026-04-29 18:46 40.28640 20.37486 36187 ft 436 kts 320°
2026-04-29 18:47 40.33412 20.32551 36182 ft 435 kts 319°
2026-04-29 18:47 40.38132 20.27663 36179 ft 435 kts 319°
2026-04-29 18:48 40.42858 20.22758 36175 ft 435 kts 319°
2026-04-29 18:48 40.47585 20.17844 36173 ft 435 kts 319°
2026-04-29 18:49 40.52326 20.12905 36170 ft 435 kts 319°
2026-04-29 18:49 40.57056 20.07968 36163 ft 434 kts 319°
2026-04-29 18:50 40.61783 20.03026 36162 ft 433 kts 319°
2026-04-29 18:50 40.66488 19.98097 36158 ft 434 kts 319°